Location: *
(43.7000°S, 168.7000°W)
Time: 14:31:10
(UTC+00:00)

HJ-1C - Pass Details

Date: 07 July 2020
Orbit: 432 x 445 km, 97.2° (Epoch: 03 August)

Event Time Altitude Azimuth Distance (km) Brightness Sun altitude
Rises 18:03:42 0° 21° (NNE) 2,426 7.9 -7.9°
Reaches altitude 10° 18:05:43 10° 24° (NNE) 1,563 6.9 -7.5°
Maximum altitude 18:09:01 61° 105° (ESE) 513 4.0 -7.0°
Drops below altitude 10° 18:12:22 10° 185° (S) 1,583 5.9 -6.5°
Sets 18:14:25 0° 188° (S) 2,460 6.8 -6.1°
